Regional Weather Roundup
Issued by NWS

Home | Current Version | Previous Version | Text Only | Print | Product List | Glossary Off
Versions: 1 2 3 4 5 6 7 8 9 10 11 12 13 14 15 16 17 18 19 20 21 22 23 24 25 26 27 28 29 30 31 32 33 34 35 36 37 38 39 40 41 42 43 44 45 46 47 48 49 50

000
ASUS43 KMPX 260801
RWRMN
WEATHER ROUNDUP FOR MINNESOTA
NATIONAL WEATHER SERVICE TWIN CITIES/CHANHASSEN MN
300 AM CDT WED APR 26 2017


NOTE: "FAIR" INDICATES FEW OR NO CLOUDS BELOW 12,000 FEET WITH NO
SIGNIFICANT WEATHER AND/OR OBSTRUCTIONS TO VISIBILITY. N/A MEANS
CURRENT SKY AND/OR WEATHER CONDITIONS ARE NOT AVAILABLE.

MNZ060>063-068>070-260900-
   Twin Cities Metro

CITY           SKY/WX    TMP DP  RH WIND       PRES   REMARKS
TWIN CITIES    LGT RAIN  44  41  89 N13       29.49F
ST PAUL        LGT RAIN  44  43  96 N10       29.51F
CRYSTAL        LGT RAIN  41  37  86 NE15G23   29.50F
BLAINE         LGT RAIN  41  41 100 NE12G18   29.51F
LAKEVILLE      RAIN      45  45 100 N12       29.46S
EDEN PRAIRIE   LGT RAIN  44  41  89 N13       29.47F FOG
SOUTH ST PAUL  LGT RAIN  44  44  99 N12       29.48F
LAKE ELMO      RAIN      43  43 100 N8        29.50F
$$
MNZ001>005-007-008-013>017-022>024-027-028-260900-
   Northwest Minnesota

CITY           SKY/WX    TMP DP  RH WIND       PRES   REMARKS
BEMIDJI        LGT SNOW  27  25  94 N10       29.75F WCI  17
HALLOCK        CLOUDY    30  25  80 NE16G22   29.89F WCI  19
ROSEAU         CLOUDY    28  25  86 NE20G26   29.88F WCI  15
WARROAD        CLOUDY    28  25  86 NE20G29   29.89F WCI  15
THIEF RVR FALL CLOUDY    29  23  78 NE22G28   29.82F WCI  15
CROOKSTON      CLOUDY    30  27  86 NE17      29.83F WCI  18
FOSSTON        MIX PCPN  27  25  93 NE13G22   29.77F WCI  16
DETROIT LAKES  MIX PCPN  32  30  93 NE8       29.71F WCI  25
MOORHEAD       LGT RAIN  30  28  93 N10       29.76F WCI  21
PARK RAPIDS    FRZ RAIN  31  26  82 NE13G18   29.68F WCI  21
MAHNOMEN       MIX PCPN  31  28  90 NE6       29.74F WCI  25
$$
MNZ006-009>011-018-025>026-260900-
   North Central Minnesota

CITY           SKY/WX    TMP DP  RH WIND       PRES   REMARKS
BAUDETTE       CLOUDY    27  20  75 NE18G25   29.86F WCI  14
FLAG ISLAND    CLOUDY    27  21  80 NE18G24   29.91F WCI  13
INTL FALLS     FLURRIES  25  20  81 NE10G26   29.85F WCI  15
WASKISH        CLOUDY    27  25  93 NE17G24   29.81F WCI  14
BIG FORK       FLURRIES  27  23  86 NE10G17   29.76F WCI  17
LONGVILLE      MIX PCPN  30  28  93 N8        29.69F WCI  23
GRAND RAPIDS   FLURRIES  28  26  92 NE10G17   29.72F WCI  19
CRANE LAKE     MIX PCPN  25  21  86 NE3G16    29.84F
ORR            MIX PCPN  25  21  86 N6        29.76F WCI  18
COOK           MIX PCPN  25  23  93 NE9G20    29.76F WCI  15
WALKER         MIX PCPN  29  26  90 NE13      29.72F WCI  19
$$
MNZ012-019>021-037-260900-
   Northeast Minnesota

CITY           SKY/WX    TMP DP  RH WIND       PRES   REMARKS
DULUTH         LGT RAIN  33  31  92 E17G25    29.66F WCI  22
ELY            LGT SNOW  25  21  86 NE12G21   29.75F WCI  14
HIBBING        FRZ RAIN  27  25  92 NE16G28   29.71F WCI  15
EVELETH        MIX PCPN  28  25  87 NE9G16    29.72F WCI  19
DULUTH HARBOR  LGT RAIN  36  34  93 NE35G40   29.69F
TWO HARBORS    DRIZZLE   36  30  80 NE14      29.68F
SILVER BAY     DRIZZLE   34  30  86 NE9G18    29.70F WCI  26
GRAND MARAIS     N/A     32  28  85 N10G22    29.73F WCI  24
G MARAIS ARPRT LGT SNOW  25  19  80 N5        29.70F WCI  19
$$
MNZ029>031-032-039>041-046>048-054>057-064-260900-
   West Central Minnesota

CITY           SKY/WX    TMP DP  RH WIND       PRES   REMARKS
FERGUS FALLS   LGT RAIN  34  32  93 NE7       29.69F WCI  28
WHEATON        MIX PCPN  34  30  86 N16       29.71F WCI  23
MORRIS         MIX PCPN  34  34 100 N20       29.64S WCI  22
ALEXANDRIA     MIX PCPN  33  32  96 N16       29.63F WCI  23
ELBOW LAKE     LGT RAIN  33  32  96 NE13G21   29.67S WCI  24
WADENA         LGT RAIN  30  28  93 N9        29.66S WCI  22
GLENWOOD       MIX PCPN  34  32  93 N21       29.61S WCI  22
APPLETON       DRIZZLE   37  34  87 N17G25    29.64S
BENSON         RAIN      37  32  81 NE15G21   29.63F
ORTONVILLE     LGT RAIN  34  32  93 NW18      29.66S WCI  23
MADISON        RAIN      39  39 100 N15G21    29.64S
WILLMAR        LGT RAIN  37  37 100 N14G22    29.59R
$$
MNZ033>034-036-042>043-049>051-058-059-260900-
   Central Minnesota

CITY           SKY/WX    TMP DP  RH WIND       PRES   REMARKS
ST CLOUD       LGT RAIN  38  37  97 N12       29.57F
SAUK CENTRE    LGT RAIN  33  32  96 N13       29.61F WCI  24
PAYNESVILLE    MIX PCPN  35  35 100 N14G22    29.58F WCI  26
AITKIN         MIX PCPN  34  28  80 N16G22    29.63F WCI  23
PINE RIVER     MIX PCPN  30  30 100 N8        29.71F WCI  23
BRAINERD       FRZ RAIN  32  30  92 NE14G25   29.64F WCI  22
STAPLES        MIX PCPN  30  30 100 CALM      29.65F
LONG PRAIRIE   LGT SNOW  32  32 100 N16       29.62F WCI  21
LITTLE FALLS   MIX PCPN  32  32 100 N6        29.62S WCI  26
LITCHFIELD     LGT RAIN  39  39 100 N15G21    29.55F
BUFFALO        LGT RAIN  41  38  90 N13G18    29.53S
MAPLE LAKE     LGT RAIN  43  41  95 N10       29.55S
HUTCHINSON     DRIZZLE   44  43  97 N10G20    29.52S
$$
MNZ037-044-045-052-053-260900-
   East Central Minnesota

CITY           SKY/WX    TMP DP  RH WIND       PRES   REMARKS
PRINCETON      LGT RAIN  39  37  93 N14       29.55F
MORA           RAIN      34  32  93 NE6G20    29.60F WCI  29
CAMBRIDGE      LGT RAIN  39  37  93 NE10G20   29.53F
RUSH CITY      LGT RAIN  37  35  92 NE13G18   29.56F
MOOSE LAKE     RAIN      34  32  93 NE14G26   29.61F WCI  24
HINCKLEY       LGT RAIN  36  36 100 NE17      29.58F
CLOQUET        MIX PCPN  34  30  86 E16G29    29.65F WCI  23
MCGREGOR       CLOUDY    32  32 100 N13       29.65F WCI  22
$$
MNZ071>073-080-081-089-090-097-098-260900-
   Southwest Minnesota

CITY           SKY/WX    TMP DP  RH WIND       PRES   REMARKS
MONTEVIDEO     FLURRIES  36  36 100 N14G21    29.61S
GRANITE FALLS  DRIZZLE   39  37  93 NW14      29.61R
CANBY          RAIN      36  35  97 NW14G21   29.64F
MARSHALL       LGT RAIN  37  36  96 N17G26    29.60R
REDWOOD FALLS  LGT RAIN  41  38  89 N18G26    29.54S
OLIVIA         LGT RAIN  39  36  87 N16G24    29.54F
PIPESTONE      DRIZZLE   36  32  87 N15G24    29.60R
WINDOM         CLOUDY    39  39 100 NW23G29   29.52S
WORTHINGTON    CLOUDY    37  36  96 NW22      29.55S
JACKSON        LGT RAIN  39  39 100 NW17G25   29.51S
TRACY          CLOUDY    38  38  99 N18       29.58S
SLAYTON        CLOUDY    35  35  99 NW17      29.58S WCI  25
$$
MNZ065>067-074>077-082>085-091>093-260900-
   South Central Minnesota

CITY           SKY/WX    TMP DP  RH WIND       PRES   REMARKS
MANKATO        LGT RAIN  47  47 100 N14       29.46S FOG
NEW ULM        LGT RAIN  45  45 100 N10G16    29.49F
ST JAMES       DRIZZLE   43  43 100 NW14      29.49F
FAIRMONT       LGT RAIN  43  42  97 NW20      29.47F
GLENCOE        LGT RAIN  44  44 100 N9G17     29.50R
FARIBAULT      LGT RAIN  52  50  93 N10G16    29.44F
OWATONNA       LGT RAIN  54  52  94 NE6       29.42F
WASECA         LGT RAIN  52  50  93 NW5       29.44F
ALBERT LEA     RAIN      50  50 100 CALM      29.42S
$$
MNZ078>079-086>088-094>096-260900-
   Southeast Minnesota

CITY           SKY/WX    TMP DP  RH WIND       PRES   REMARKS
ROCHESTER      CLOUDY    53  52  96 E9        29.41F
RED WING       RAIN      54  50  87 E7        29.43F
STANTON        RAIN      51  49  93 N12       29.42F
DODGE CENTER   LGT RAIN  52  52 100 NE10      29.41F
WINONA         CLOUDY    55  52  88 E3        29.41F
AUSTIN         CLOUDY    54  50  87 NE5       29.39F
PRESTON        CLOUDY    52  50  92 NE6       29.41S
$$
ABBREVIATIONS USED IN REMARKS
   TC - TEMPERATURES IN CELSIUS
  WCI - WIND CHILL INDEX
   HX - HEAT INDEX
  VSB - VISIBILITY
$$



USA.gov is the U.S. government's official web portal to all federal, state and local government web resources and services.